Deer Park, WA

4:59 AM PDT on July 29, 2017 (GMT -0700)
Deer Park

Weather History for KDEW - September, 2012

Change the Weather History Date:

Tuesday, September 25, 2012

  Actual Average Record
Temperature  
Mean Temperature 56 °F 52 °F  
Max Temperature 72 °F 69 °F 86 °F (2001)
Min Temperature 39 °F 36 °F 24 °F (2000)
Degree Days  
Heating Degree Days 10 13  
Month to date heating degree days 207  
Since 1 July heating degree days 351  
Cooling Degree Days 0 0  
Month to date cooling degree days 10  
Year to date cooling degree days 185  
Growing Degree Days 6 (Base 50)    
Moisture  
Dew Point 44 °F    
Average Humidity 73    
Maximum Humidity 96    
Minimum Humidity 40    
Precipitation  
Precipitation 0.00 in 0.03 in 0.21 in (2001)
Month to date precipitation 0.81  
Year to date precipitation 14.25  
Sea Level Pressure  
Sea Level Pressure 29.99 in    
Wind  
Wind Speed 1 mph (SW)    
Max Wind Speed 7 mph    
Max Gust Speed -    
Visibility 8 miles    
Events      
T = Trace of Precipitation, MM = Missing Value Source: NWS Daily Summary

Daily Weather History Graph

Daily Weather History Graph

Search for Another Location

Airport or City:

Trip Planner

Search our weather history database for the weather conditions in past years. The results will help you decide how hot, cold, wet, or windy it might be!

Date:

Astronomy

Sep. 25, 2012 Rise Set
Actual Time 6:41 AM PDT 6:40 PM PDT
Civil Twilight 6:10 AM PDT 7:10 PM PDT
Nautical Twilight 5:34 AM PDT 7:47 PM PDT
Astronomical Twilight 4:56 AM PDT 8:24 PM PDT
Moon 4:22 PM PDT (9/25) 1:50 AM PDT (9/25)
Length of Visible Light 13h 00m
Length of Day
11h 58m
Waxing Gibbous, 81% of the Moon is Illuminated
Sep 25
Waxing Gibbous
Sep 29
Full
Oct 8
Last Quarter
Oct 15
New
Oct 21
First Quarter

Hourly Weather History & Observations

Time (PDT) Temp. Windchill Dew Point Humidity Pressure Visibility Wind Dir Wind Speed Gust Speed Precip Events Conditions
12:53 AM 45.0 °F - 41.0 °F 86% 29.98 in 10.0 mi Calm Calm - N/A   Clear
1:53 AM 43.0 °F - 39.9 °F 89% 29.98 in 10.0 mi Calm Calm - N/A   Clear
2:53 AM 43.0 °F - 41.0 °F 93% 29.97 in 9.0 mi Calm Calm - N/A   Clear
3:53 AM 43.0 °F 41.3 °F 41.0 °F 93% 29.97 in 10.0 mi NW 3.5 mph - N/A   Clear
4:53 AM 41.0 °F - 39.9 °F 96% 29.96 in 9.0 mi Calm Calm - N/A   Clear
5:53 AM 41.0 °F 38.0 °F 39.0 °F 93% 29.97 in 8.0 mi NW 4.6 mph - N/A   Clear
6:53 AM 39.0 °F - 37.9 °F 96% 30.01 in 5.0 mi Calm Calm - N/A   Clear
7:53 AM 43.0 °F - 41.0 °F 93% 30.02 in 7.0 mi Calm Calm - N/A   Clear
8:53 AM 53.1 °F - 46.9 °F 80% 30.02 in 9.0 mi Calm Calm - N/A   Clear
9:53 AM 57.0 °F - 46.9 °F 69% 30.03 in 10.0 mi SE 3.5 mph - N/A   Clear
10:53 AM 60.1 °F - 46.9 °F 62% 30.02 in 10.0 mi SSE 6.9 mph - N/A   Clear
12:53 PM 66.0 °F - 46.9 °F 50% 30.00 in 9.0 mi Variable 4.6 mph - N/A   Clear
1:53 PM 70.0 °F - 46.9 °F 44% 29.99 in 9.0 mi Variable 5.8 mph - N/A   Clear
2:53 PM 72.0 °F - 46.9 °F 41% 29.97 in 9.0 mi Calm Calm - N/A   Clear
3:53 PM 71.1 °F - 46.0 °F 41% 29.97 in 9.0 mi SW 6.9 mph - N/A   Clear
4:53 PM 72.0 °F - 46.0 °F 40% 29.96 in 8.0 mi Calm Calm - N/A   Clear
5:53 PM 70.0 °F - 46.0 °F 42% 29.97 in 5.0 mi Calm Calm - N/A   Haze
6:53 PM 59.0 °F - 46.0 °F 62% 29.99 in 7.0 mi Calm Calm - N/A   Clear
7:53 PM 54.0 °F - 45.0 °F 72% 30.00 in 9.0 mi Calm Calm - N/A   Clear
8:53 PM 51.1 °F - 44.1 °F 77% 30.01 in 8.0 mi Calm Calm - N/A   Clear
10:53 PM 46.0 °F - 43.0 °F 89% 30.02 in 8.0 mi Calm Calm - N/A   Clear
11:53 PM 43.0 °F - 41.0 °F 93% 30.03 in 7.0 mi Calm Calm - N/A   Clear